Weather in Sahl Hasheesh

Egypt     27°14′53″N   33°49′17″E
temp.,
°C
wind,
m/s
gust,
m/s
humid.,
%
clouds,
%
prec.,
mm/h
press.,
hPa
HPBL,
m
16 january, sun
sun1623:00+12wnw610390 0.0 1016220
02:00+11w45420 0.0 101694
05:00+10w45471 0.0 101696
08:00+11w57450 0.0 1017228
11:00+16nw78300 0.0 10171493
14:00+18wnw79241 0.0 10142152
17:00+17wnw68329 0.0 1015335
20:00+14wnw711455 0.0 1016320
17 january, mon
mon1723:00+13wnw564810 0.0 1016166
02:00+12wnw56535 0.0 1016135
05:00+11nw711665 0.0 1016238
08:00+12nw811635 0.0 1018537
11:00+16nw88414 0.0 10191586
14:00+17nnw993289 0.0 10172340
17:00+15nw911335 0.0 1019831
20:00+12nw913271 0.0 1022471
18 january, tue
tue1823:00+11wnw913300 0.0 1022385
02:00+9wnw711360 0.0 1023255
05:00+8wnw69385 0.0 1023172
08:00+10wnw68364 0.0 1025378
11:00+14nw54344 0.0 1025892
14:00+16n54310 0.0 10221602
17:00+15n57340 0.0 1022240
20:00+11wnw68330 0.0 1024180
19 january, wed
wed1923:00+10wnw58370 0.0 1023142
02:00+9wnw56340 0.0 1022120
05:00+9wnw46390 0.0 102286
08:00+10wnw46370 0.0 1023166
11:00+17nw56230 0.0 10231180
14:00+19nnw810324 0.0 10201974
17:00+16nnw911452 0.0 1021488
20:00+13nw711680 0.0 1023315
20 january, thu
thu2023:00+12wnw69650 0.0 1024214
02:00+12nw812550 0.0 1024347
05:00+9wnw610610 0.0 1025238
08:00+11wnw69540 0.0 1027643
11:00+15nw89360 0.0 10261372
14:00+16nnw99370 0.0 10241467
17:00+15nnw68410 0.0 1025319
20:00+12wnw69460 0.0 1026187